sat.trackr.live / text

‹ back to catalog

STARLINK-1169

NORAD 45061 · 2020-006T

PAYLOAD ACTIVE UNKNOWN

§ Identity

Operator
Country
US
Launch date
2020-01-29
Launch site
AFETR
Launch vehicle
Mass (kg)
RCS (m²)

Purposes: comms

External: N2YO · Heavens-Above · Gunter

§ Orbital elements

Epoch: 2026-09-20T03:57:42.617376Z

Period
93.00 min
Inclination
53.1499°
Eccentricity
0.0001985
Mean motion
15.48305784 rev/d
Perigee alt
420.3 km
Apogee alt
423.0 km
Semi-major
6,799.8 km
B*
9.4252e-4
RAAN
85.4764°
Arg perigee
211.2923°
Mean anomaly
148.7968°
Rev number
36,649

§ Raw data

STARLINK-11691 45061U 20006T   26263.16507659  .00050494  00000+0  94252-3 0  99982 45061  53.1499  85.4764 0001985 211.2923 148.7968 15.48305784366492

JSON: /api/v1/satellites/45061 · /tle

For live sub-satellite position, see the globe view (requires WebGL).

§ Visibility from observer

Set your observer location to see the next 7 days of passes ≥ 10°. The values pass through the URL so the page stays shareable.

No JS? Fill the form by hand. The geolocation button needs JavaScript.